Location: Observatorio Astronomico Bellanoche
(41.2340°N, 103.6610°W)
Time: 01:25:46

Tiangong 1 - Visible Passes

Search period start: 23 March 2018 00:00
Search period end: 02 April 2018 00:00
Orbit: 209 x 230 km, 42.7° (Epoch: 23 March)

Date Brightness Start Highest point End Pass type
(mag) Time Alt. Az. Time Alt. Az. Time Alt. Az.
30 Mar 1.9 05:56:59 10° SSW 05:58:34 21° SSE 06:00:09 10° E visible
31 Mar 1.6 05:33:04 21° S 05:33:29 23° SSE 05:35:07 10° E visible
01 Apr 2.4 05:08:22 19° ESE 05:08:22 19° ESE 05:09:18 10° E visible
